Location: Caltech
(34.1382°N, 118.1253°W)
Time: 17:50:41
(UTC-07:00)

ITAMSAT 1 - Visible Passes

Search period start: 20 August 2017 00:00
Search period end: 30 August 2017 00:00
Orbit: 783 x 797 km, 98.8° (Epoch: 20 August)

Date Brightness Start Highest point End Pass type
(mag) Time Alt. Az. Time Alt. Az. Time Alt. Az.
20 Aug 8.1 04:11:04 10° NNE 04:16:09 56° E 04:18:53 27° S visible
20 Aug 9.4 05:52:13 10° NNW 05:55:06 15° WNW 05:57:58 10° W visible
21 Aug 9.3 03:42:16 10° NE 03:46:41 28° E 03:49:05 20° SE visible
21 Aug 8.6 05:21:39 10° N 05:26:02 29° WNW 05:29:49 13° WSW visible
22 Aug 10.1 03:14:30 10° ENE 03:17:06 14° E 03:19:18 11° ESE visible
22 Aug 7.7 04:51:47 10° N 04:56:51 56° WNW 05:00:02 22° SW visible
23 Aug 7.7 04:22:22 10° NNE 04:27:32 74° ESE 04:30:14 29° S visible
24 Aug 8.9 03:53:22 10° NNE 03:58:07 36° E 04:00:27 24° SE visible
24 Aug 8.9 05:33:21 10° NNW 05:37:19 23° WNW 05:41:11 10° WSW visible
25 Aug 9.9 03:25:04 10° NE 03:28:34 18° E 03:30:39 15° ESE visible
25 Aug 8.0 05:03:17 10° N 05:08:11 43° WNW 05:11:23 20° SW visible
26 Aug 7.5 04:33:43 10° NNE 04:38:54 86° WNW 04:41:36 29° SSW visible
27 Aug 8.5 04:04:32 10° NNE 04:09:32 47° E 04:11:48 29° SSE visible
27 Aug 9.2 05:45:11 10° NNW 05:48:34 18° WNW 05:51:58 10° WSW visible
28 Aug 9.6 03:35:55 10° NE 03:40:02 24° E 03:42:00 19° SE visible
28 Aug 8.4 05:14:51 10° N 05:19:29 34° WNW 05:22:44 17° SW visible
29 Aug 10.3 03:08:48 10° ENE 03:10:25 11° E 03:12:01 10° ESE visible
29 Aug 7.6 04:45:07 10° N 04:50:15 67° WNW 04:52:57 28° SSW visible
